Year,Month,Day,Hour,Minute,Value (Times are PST for insolation in W/m^2)
2021,05,29,00,00,0.00
2021,05,29,00,01,0.00
2021,05,29,00,02,0.00
2021,05,29,00,03,0.00
2021,05,29,00,04,0.00
2021,05,29,00,05,0.00
2021,05,29,00,06,0.00
2021,05,29,00,07,0.00
2021,05,29,00,08,0.00
2021,05,29,00,09,0.00
2021,05,29,00,10,0.00
2021,05,29,00,11,0.00
2021,05,29,00,12,0.00
2021,05,29,00,13,0.00
2021,05,29,00,14,0.00
2021,05,29,00,15,0.00
2021,05,29,00,16,0.00
2021,05,29,00,17,0.00
2021,05,29,00,18,0.00
2021,05,29,00,19,0.00
2021,05,29,00,20,0.00
2021,05,29,00,21,0.00
2021,05,29,00,22,0.00
2021,05,29,00,23,0.00
2021,05,29,00,24,0.00
2021,05,29,00,25,0.00
2021,05,29,00,26,0.00
2021,05,29,00,27,0.00
2021,05,29,00,28,0.00
2021,05,29,00,29,0.00
2021,05,29,00,30,0.00
2021,05,29,00,31,0.00
2021,05,29,00,32,0.00
2021,05,29,00,33,0.00
2021,05,29,00,34,0.00
2021,05,29,00,35,0.00
2021,05,29,00,36,0.00
2021,05,29,00,37,0.00
2021,05,29,00,38,0.00
2021,05,29,00,39,0.00
2021,05,29,00,40,0.00
2021,05,29,00,41,0.00
2021,05,29,00,42,0.00
2021,05,29,00,43,0.00
2021,05,29,00,44,0.00
2021,05,29,00,45,0.00
2021,05,29,00,46,0.00
2021,05,29,00,47,0.00
2021,05,29,00,48,0.00
2021,05,29,00,49,0.00
2021,05,29,00,50,0.00
2021,05,29,00,51,0.00
2021,05,29,00,52,0.00
2021,05,29,00,53,0.00
2021,05,29,00,54,0.00
2021,05,29,00,55,0.00
2021,05,29,00,56,0.00
2021,05,29,00,57,0.00
2021,05,29,00,58,0.00
2021,05,29,00,59,0.00
2021,05,29,01,00,0.00
2021,05,29,01,01,0.00
2021,05,29,01,02,0.00
2021,05,29,01,03,0.00
2021,05,29,01,04,0.00
2021,05,29,01,05,0.00
2021,05,29,01,06,0.00
2021,05,29,01,07,0.00
2021,05,29,01,08,0.00
2021,05,29,01,09,0.00
2021,05,29,01,10,0.00
2021,05,29,01,11,0.00
2021,05,29,01,12,0.00
2021,05,29,01,13,0.00
2021,05,29,01,14,0.00
2021,05,29,01,15,0.00
2021,05,29,01,16,0.00
2021,05,29,01,17,0.00
2021,05,29,01,18,0.00
2021,05,29,01,19,0.00
2021,05,29,01,20,0.00
2021,05,29,01,21,0.00
2021,05,29,01,22,0.00
2021,05,29,01,23,0.00
2021,05,29,01,24,0.00
2021,05,29,01,25,0.00
2021,05,29,01,26,0.00
2021,05,29,01,27,0.00
2021,05,29,01,28,0.00
2021,05,29,01,29,0.00
2021,05,29,01,30,0.00
2021,05,29,01,31,0.00
2021,05,29,01,32,0.00
2021,05,29,01,33,0.00
2021,05,29,01,34,0.00
2021,05,29,01,35,0.00
2021,05,29,01,36,0.00
2021,05,29,01,37,0.00
2021,05,29,01,38,0.00
2021,05,29,01,39,0.00
2021,05,29,01,40,0.00
2021,05,29,01,41,0.00
2021,05,29,01,42,0.00
2021,05,29,01,43,0.00
2021,05,29,01,44,0.00
2021,05,29,01,45,0.00
2021,05,29,01,46,0.00
2021,05,29,01,47,0.00
2021,05,29,01,48,0.00
2021,05,29,01,49,0.00
2021,05,29,01,50,0.00
2021,05,29,01,51,0.00
2021,05,29,01,52,0.00
2021,05,29,01,53,0.00
2021,05,29,01,54,0.00
2021,05,29,01,55,0.00
2021,05,29,01,56,0.00
2021,05,29,01,57,0.00
2021,05,29,01,58,0.00
2021,05,29,01,59,0.00
2021,05,29,02,00,0.00
2021,05,29,02,01,0.00
2021,05,29,02,02,0.00
2021,05,29,02,03,0.00
2021,05,29,02,04,0.00
2021,05,29,02,05,0.00
2021,05,29,02,06,0.00
2021,05,29,02,07,0.00
2021,05,29,02,08,0.00
2021,05,29,02,09,0.00
2021,05,29,02,10,0.00
2021,05,29,02,11,0.00
2021,05,29,02,12,0.00
2021,05,29,02,13,0.00
2021,05,29,02,14,0.00
2021,05,29,02,15,0.00
2021,05,29,02,16,0.00
2021,05,29,02,17,0.00
2021,05,29,02,18,0.00
2021,05,29,02,19,0.00
2021,05,29,02,20,0.00
2021,05,29,02,21,0.00
2021,05,29,02,22,0.00
2021,05,29,02,23,0.00
2021,05,29,02,24,0.00
2021,05,29,02,25,0.00
2021,05,29,02,26,0.00
2021,05,29,02,27,0.00
2021,05,29,02,28,0.00
2021,05,29,02,29,0.00
2021,05,29,02,30,0.00
2021,05,29,02,31,0.00
2021,05,29,02,32,0.00
2021,05,29,02,33,0.00
2021,05,29,02,34,0.00
2021,05,29,02,35,0.00
2021,05,29,02,36,0.00
2021,05,29,02,37,0.00
2021,05,29,02,38,0.00
2021,05,29,02,39,0.00
2021,05,29,02,40,0.00
2021,05,29,02,41,0.00
2021,05,29,02,42,0.00
2021,05,29,02,43,0.00
2021,05,29,02,44,0.00
2021,05,29,02,45,0.00
2021,05,29,02,46,0.00
2021,05,29,02,47,0.00
2021,05,29,02,48,0.00
2021,05,29,02,49,0.00
2021,05,29,02,50,0.00
2021,05,29,02,51,0.00
2021,05,29,02,52,0.00
2021,05,29,02,53,0.00
2021,05,29,02,54,0.00
2021,05,29,02,55,0.00
2021,05,29,02,56,0.00
2021,05,29,02,57,0.00
2021,05,29,02,58,0.00
2021,05,29,02,59,0.00
2021,05,29,03,00,0.00
2021,05,29,03,01,0.00
2021,05,29,03,02,0.00
2021,05,29,03,03,0.00
2021,05,29,03,04,0.00
2021,05,29,03,05,0.00
2021,05,29,03,06,0.00
2021,05,29,03,07,0.00
2021,05,29,03,08,0.00
2021,05,29,03,09,0.00
2021,05,29,03,10,0.00
2021,05,29,03,11,0.00
2021,05,29,03,12,0.00
2021,05,29,03,13,0.00
2021,05,29,03,14,0.00
2021,05,29,03,15,0.00
2021,05,29,03,16,0.00
2021,05,29,03,17,0.00
2021,05,29,03,18,0.00
2021,05,29,03,19,0.00
2021,05,29,03,20,0.00
2021,05,29,03,21,0.00
2021,05,29,03,22,0.00
2021,05,29,03,23,0.00
2021,05,29,03,24,0.00
2021,05,29,03,25,0.00
2021,05,29,03,26,0.00
2021,05,29,03,27,0.00
2021,05,29,03,28,0.00
2021,05,29,03,29,0.00
2021,05,29,03,30,0.00
2021,05,29,03,31,0.00
2021,05,29,03,32,0.00
2021,05,29,03,33,0.00
2021,05,29,03,34,0.00
2021,05,29,03,35,0.00
2021,05,29,03,36,0.00
2021,05,29,03,37,0.00
2021,05,29,03,38,0.00
2021,05,29,03,39,0.00
2021,05,29,03,40,0.00
2021,05,29,03,41,0.00
2021,05,29,03,42,0.00
2021,05,29,03,43,0.00
2021,05,29,03,44,0.00
2021,05,29,03,45,0.00
2021,05,29,03,46,0.00
2021,05,29,03,47,0.00
2021,05,29,03,48,0.00
2021,05,29,03,49,0.00
2021,05,29,03,50,0.00
2021,05,29,03,51,0.00
2021,05,29,03,52,0.00
2021,05,29,03,53,0.00
2021,05,29,03,54,0.00
2021,05,29,03,55,0.00
2021,05,29,03,56,0.00
2021,05,29,03,57,0.00
2021,05,29,03,58,0.00
2021,05,29,03,59,0.00
2021,05,29,04,00,0.00
2021,05,29,04,01,0.00
2021,05,29,04,02,0.00
2021,05,29,04,03,0.00
2021,05,29,04,04,0.00
2021,05,29,04,08,0.00
2021,05,29,04,09,0.00
2021,05,29,04,10,0.00
2021,05,29,04,11,0.00
2021,05,29,04,12,0.00
2021,05,29,04,13,0.00
2021,05,29,04,14,0.00
2021,05,29,04,15,0.00
2021,05,29,04,16,0.00
2021,05,29,04,17,0.00
2021,05,29,04,18,0.00
2021,05,29,04,19,0.00
2021,05,29,04,20,0.00
2021,05,29,04,21,0.00
2021,05,29,04,22,0.00
2021,05,29,04,23,0.00
2021,05,29,04,24,0.00
2021,05,29,04,25,0.00
2021,05,29,04,26,0.00
2021,05,29,04,27,0.00
2021,05,29,04,28,0.00
2021,05,29,04,29,0.00
2021,05,29,04,30,0.00
2021,05,29,04,31,0.00
2021,05,29,04,32,0.00
2021,05,29,04,33,0.00
2021,05,29,04,34,0.00
2021,05,29,04,35,0.00
2021,05,29,04,36,0.00
2021,05,29,04,37,0.00
2021,05,29,04,38,0.00
2021,05,29,04,39,0.00
2021,05,29,04,40,0.00
2021,05,29,04,41,0.00
2021,05,29,04,42,0.00
2021,05,29,04,43,0.00
2021,05,29,04,44,0.00
2021,05,29,04,45,0.00
2021,05,29,04,46,0.00
2021,05,29,04,47,0.00
2021,05,29,04,48,0.00
2021,05,29,04,49,0.00
2021,05,29,04,50,0.00
2021,05,29,04,51,0.00
2021,05,29,04,52,0.00
2021,05,29,04,53,0.00
2021,05,29,04,54,0.00
2021,05,29,04,55,0.00
2021,05,29,04,56,0.00
2021,05,29,04,57,0.00
2021,05,29,04,58,0.00
2021,05,29,04,59,0.00
2021,05,29,05,00,0.00
2021,05,29,05,01,0.00
2021,05,29,05,02,0.00
2021,05,29,05,03,0.00
2021,05,29,05,04,0.00
2021,05,29,05,05,0.00
2021,05,29,05,06,0.00
2021,05,29,05,07,0.00
2021,05,29,05,08,0.00
2021,05,29,05,09,0.00
2021,05,29,05,10,0.00
2021,05,29,05,11,0.00
2021,05,29,05,12,0.00
2021,05,29,05,13,0.00
2021,05,29,05,14,1.00
2021,05,29,05,15,5.00
2021,05,29,05,16,5.00
2021,05,29,05,17,5.00
2021,05,29,05,18,5.00
2021,05,29,05,19,5.00
2021,05,29,05,20,6.90
2021,05,29,05,21,7.00
2021,05,29,05,22,7.00
2021,05,29,05,23,7.00
2021,05,29,05,24,8.10
2021,05,29,05,25,9.00
2021,05,29,05,26,9.00
2021,05,29,05,27,9.10
2021,05,29,05,28,11.00
2021,05,29,05,29,11.00
2021,05,29,05,30,11.00
2021,05,29,05,31,11.60
2021,05,29,05,32,12.00
2021,05,29,05,33,12.00
2021,05,29,05,34,12.10
2021,05,29,05,35,14.00
2021,05,29,05,36,14.80
2021,05,29,05,37,16.00
2021,05,29,05,38,16.00
2021,05,29,05,39,17.50
2021,05,29,05,40,18.00
2021,05,29,05,41,18.10
2021,05,29,05,42,19.00
2021,05,29,05,43,19.00
2021,05,29,05,44,20.00
2021,05,29,05,45,21.00
2021,05,29,05,46,21.00
2021,05,29,05,47,22.70
2021,05,29,05,48,23.00
2021,05,29,05,49,23.50
2021,05,29,05,50,25.00
2021,05,29,05,51,25.00
2021,05,29,05,52,25.60
2021,05,29,05,53,26.00
2021,05,29,05,54,26.00
2021,05,29,05,55,28.00
2021,05,29,05,56,28.00
2021,05,29,05,57,28.80
2021,05,29,05,58,30.00
2021,05,29,05,59,30.00
2021,05,29,06,00,31.50
2021,05,29,06,01,32.00
2021,05,29,06,02,32.20
2021,05,29,06,03,33.00
2021,05,29,06,04,33.00
2021,05,29,06,05,34.10
2021,05,29,06,06,35.00
2021,05,29,06,07,35.00
2021,05,29,06,08,36.90
2021,05,29,06,09,37.00
2021,05,29,06,10,37.70
2021,05,29,06,11,39.00
2021,05,29,06,12,39.50
2021,05,29,06,13,40.00
2021,05,29,06,14,40.00
2021,05,29,06,15,41.90
2021,05,29,06,16,42.50
2021,05,29,06,17,46.50
2021,05,29,06,18,60.50
2021,05,29,06,19,83.90
2021,05,29,06,20,94.30
2021,05,29,06,21,99.00
2021,05,29,06,22,102.10
2021,05,29,06,23,105.10
2021,05,29,06,24,109.70
2021,05,29,06,25,108.10
2021,05,29,06,26,100.90
2021,05,29,06,27,102.90
2021,05,29,06,28,112.70
2021,05,29,06,29,119.50
2021,05,29,06,30,117.50
2021,05,29,06,31,117.50
2021,05,29,06,32,121.50
2021,05,29,06,33,124.20
2021,05,29,06,34,120.00
2021,05,29,06,35,118.00
2021,05,29,06,36,121.60
2021,05,29,06,37,126.80
2021,05,29,06,38,131.30
2021,05,29,06,39,135.50
2021,05,29,06,40,141.60
2021,05,29,06,41,139.70
2021,05,29,06,42,137.20
2021,05,29,06,43,142.10
2021,05,29,06,44,150.50
2021,05,29,06,45,155.40
2021,05,29,06,46,157.00
2021,05,29,06,47,159.30
2021,05,29,06,48,161.50
2021,05,29,06,49,162.90
2021,05,29,06,50,165.50
2021,05,29,06,51,168.50
2021,05,29,06,52,162.50
2021,05,29,06,53,159.00
2021,05,29,06,54,168.00
2021,05,29,06,55,173.20
2021,05,29,06,56,174.20
2021,05,29,06,57,179.90
2021,05,29,06,58,185.00
2021,05,29,06,59,185.00
2021,05,29,07,00,185.00
2021,05,29,07,01,188.50
2021,05,29,07,02,192.30
2021,05,29,07,03,193.10
2021,05,29,07,04,195.00
2021,05,29,07,05,195.00
2021,05,29,07,06,194.10
2021,05,29,07,07,190.00
2021,05,29,07,08,164.70
2021,05,29,07,09,140.90
2021,05,29,07,10,155.80
2021,05,29,07,11,164.30
2021,05,29,07,12,175.70
2021,05,29,07,13,185.20
2021,05,29,07,14,196.20
2021,05,29,07,15,202.50
2021,05,29,07,16,206.40
2021,05,29,07,17,206.50
2021,05,29,07,18,211.70
2021,05,29,07,19,216.40
2021,05,29,07,20,223.60
2021,05,29,07,21,230.00
2021,05,29,07,22,232.00
2021,05,29,07,23,239.30
2021,05,29,07,24,250.80
2021,05,29,07,25,260.00
2021,05,29,07,26,268.30
2021,05,29,07,27,272.40
2021,05,29,07,28,275.20
2021,05,29,07,29,270.80
2021,05,29,07,30,270.70
2021,05,29,07,31,272.60
2021,05,29,07,32,276.00
2021,05,29,07,33,279.10
2021,05,29,07,34,286.10
2021,05,29,07,35,289.00
2021,05,29,07,36,293.00
2021,05,29,07,37,296.80
2021,05,29,07,38,299.30
2021,05,29,07,39,303.50
2021,05,29,07,40,314.90
2021,05,29,07,41,320.00
2021,05,29,07,42,320.00
2021,05,29,07,43,323.90
2021,05,29,07,44,326.50
2021,05,29,07,45,321.80
2021,05,29,07,46,335.10
2021,05,29,07,47,347.10
2021,05,29,07,48,355.10
2021,05,29,07,49,357.00
2021,05,29,07,50,352.90
2021,05,29,07,51,345.90
2021,05,29,07,52,351.90
2021,05,29,07,53,357.50
2021,05,29,07,54,343.00
2021,05,29,07,55,336.30
2021,05,29,07,56,349.20
2021,05,29,07,57,360.70
2021,05,29,07,58,371.50
2021,05,29,07,59,384.00
2021,05,29,08,00,397.70
2021,05,29,08,01,399.00
2021,05,29,08,02,404.80
2021,05,29,08,03,410.00
2021,05,29,08,04,405.10
2021,05,29,08,05,411.20
2021,05,29,08,06,417.00
2021,05,29,08,07,414.10
2021,05,29,08,08,402.30
2021,05,29,08,09,396.60
2021,05,29,08,10,394.80
2021,05,29,08,11,407.80
2021,05,29,08,12,401.30
2021,05,29,08,13,380.30
2021,05,29,08,14,355.30
2021,05,29,08,15,346.60
2021,05,29,08,16,340.80
2021,05,29,08,17,327.10
2021,05,29,08,18,333.00
2021,05,29,08,19,346.80
2021,05,29,08,20,331.00
2021,05,29,08,21,320.70
2021,05,29,08,22,346.70
2021,05,29,08,23,358.20
2021,05,29,08,24,366.30
2021,05,29,08,25,329.40
2021,05,29,08,26,329.00
2021,05,29,08,27,334.20
2021,05,29,08,28,349.80
2021,05,29,08,29,355.10
2021,05,29,08,30,367.40
2021,05,29,08,31,367.70
2021,05,29,08,32,333.40
2021,05,29,08,33,374.10
2021,05,29,08,34,388.60
2021,05,29,08,35,390.00
2021,05,29,08,36,398.40
2021,05,29,08,37,409.40
2021,05,29,08,38,415.90
2021,05,29,08,39,415.10
2021,05,29,08,40,414.30
2021,05,29,08,41,419.30
2021,05,29,08,42,416.20
2021,05,29,08,43,416.60
2021,05,29,08,44,424.30
2021,05,29,08,45,430.20
2021,05,29,08,46,434.00
2021,05,29,08,47,440.10
2021,05,29,08,48,447.70
2021,05,29,08,49,457.80
2021,05,29,08,50,469.00
2021,05,29,08,51,477.80
2021,05,29,08,52,484.20
2021,05,29,08,53,489.00
2021,05,29,08,54,492.40
2021,05,29,08,55,494.00
2021,05,29,08,56,492.10
2021,05,29,08,57,493.60
2021,05,29,08,58,493.20
2021,05,29,08,59,493.70
2021,05,29,09,00,496.40
2021,05,29,09,01,507.10
2021,05,29,09,02,513.60
2021,05,29,09,03,515.10
2021,05,29,09,04,515.30
2021,05,29,09,05,524.70
2021,05,29,09,06,527.00
2021,05,29,09,07,534.30
2021,05,29,09,08,535.50
2021,05,29,09,09,536.70
2021,05,29,09,10,542.80
2021,05,29,09,11,545.00
2021,05,29,09,12,548.60
2021,05,29,09,13,551.80
2021,05,29,09,14,554.10
2021,05,29,09,15,555.00
2021,05,29,09,16,555.80
2021,05,29,09,17,559.90
2021,05,29,09,18,564.90
2021,05,29,09,19,567.50
2021,05,29,09,20,570.70
2021,05,29,09,21,577.10
2021,05,29,09,22,578.00
2021,05,29,09,23,580.40
2021,05,29,09,24,584.50
2021,05,29,09,25,587.70
2021,05,29,09,26,589.00
2021,05,29,09,27,590.50
2021,05,29,09,28,582.70
2021,05,29,09,29,577.90
2021,05,29,09,30,588.90
2021,05,29,09,31,595.00
2021,05,29,09,32,599.30
2021,05,29,09,33,606.60
2021,05,29,09,34,609.90
2021,05,29,09,35,612.20
2021,05,29,09,36,613.00
2021,05,29,09,37,611.70
2021,05,29,09,38,616.30
2021,05,29,09,39,624.50
2021,05,29,09,40,626.00
2021,05,29,09,41,615.00
2021,05,29,09,42,604.60
2021,05,29,09,43,588.30
2021,05,29,09,44,560.00
2021,05,29,09,45,573.10
2021,05,29,09,46,602.70
2021,05,29,09,47,625.30
2021,05,29,09,48,641.40
2021,05,29,09,49,644.40
2021,05,29,09,50,649.00
2021,05,29,09,51,649.50
2021,05,29,09,52,651.10
2021,05,29,09,53,653.50
2021,05,29,09,54,655.70
2021,05,29,09,55,658.70
2021,05,29,09,56,658.00
2021,05,29,09,57,661.70
2021,05,29,09,58,667.00
2021,05,29,09,59,671.00
2021,05,29,10,00,673.90
2021,05,29,10,01,675.00
2021,05,29,10,02,675.00
2021,05,29,10,03,675.80
2021,05,29,10,04,681.80
2021,05,29,10,05,688.00
2021,05,29,10,06,691.40
2021,05,29,10,07,695.10
2021,05,29,10,08,696.00
2021,05,29,10,09,700.10
2021,05,29,10,10,702.50
2021,05,29,10,11,708.90
2021,05,29,10,12,713.00
2021,05,29,10,13,714.60
2021,05,29,10,14,716.50
2021,05,29,10,15,715.30
2021,05,29,10,16,703.30
2021,05,29,10,17,695.50
2021,05,29,10,18,707.50
2021,05,29,10,19,713.00
2021,05,29,10,20,716.70
2021,05,29,10,21,726.70
2021,05,29,10,22,730.80
2021,05,29,10,23,730.70
2021,05,29,10,24,727.60
2021,05,29,10,25,726.10
2021,05,29,10,26,731.20
2021,05,29,10,27,722.30
2021,05,29,10,28,707.30
2021,05,29,10,29,681.80
2021,05,29,10,30,657.10
2021,05,29,10,31,667.00
2021,05,29,10,32,644.80
2021,05,29,10,33,652.40
2021,05,29,10,34,685.30
2021,05,29,10,35,734.70
2021,05,29,10,36,751.00
2021,05,29,10,37,754.80
2021,05,29,10,38,760.50
2021,05,29,10,39,765.40
2021,05,29,10,40,769.40
2021,05,29,10,41,770.60
2021,05,29,10,42,774.00
2021,05,29,10,43,765.50
2021,05,29,10,44,755.20
2021,05,29,10,45,751.70
2021,05,29,10,46,754.60
2021,05,29,10,47,767.00
2021,05,29,10,48,766.60
2021,05,29,10,49,737.60
2021,05,29,10,50,711.10
2021,05,29,10,51,690.40
2021,05,29,10,52,677.70
2021,05,29,10,53,684.00
2021,05,29,10,54,693.00
2021,05,29,10,55,670.00
2021,05,29,10,56,682.90
2021,05,29,10,57,631.30
2021,05,29,10,58,626.20
2021,05,29,10,59,652.70
2021,05,29,11,00,678.90
2021,05,29,11,01,702.90
2021,05,29,11,02,733.00
2021,05,29,11,03,759.70
2021,05,29,11,04,764.40
2021,05,29,11,05,779.90
2021,05,29,11,06,790.00
2021,05,29,11,07,794.00
2021,05,29,11,08,793.70
2021,05,29,11,09,794.50
2021,05,29,11,10,793.10
2021,05,29,11,11,791.40
2021,05,29,11,12,795.10
2021,05,29,11,13,800.00
2021,05,29,11,14,800.00
2021,05,29,11,15,801.90
2021,05,29,11,16,802.20
2021,05,29,11,17,804.80
2021,05,29,11,18,807.40
2021,05,29,11,19,809.00
2021,05,29,11,20,812.60
2021,05,29,11,21,817.00
2021,05,29,11,22,816.30
2021,05,29,11,23,816.80
2021,05,29,11,24,817.10
2021,05,29,11,25,819.40
2021,05,29,11,26,820.30
2021,05,29,11,27,820.90
2021,05,29,11,28,823.00
2021,05,29,11,29,823.70
2021,05,29,11,30,824.00
2021,05,29,11,31,826.00
2021,05,29,11,32,826.40
2021,05,29,11,33,828.70
2021,05,29,11,34,830.50
2021,05,29,11,35,831.00
2021,05,29,11,36,831.00
2021,05,29,11,37,834.50
2021,05,29,11,38,835.00
2021,05,29,11,39,835.50
2021,05,29,11,40,837.40
2021,05,29,11,41,838.00
2021,05,29,11,42,838.00
2021,05,29,11,43,839.50
2021,05,29,11,44,841.70
2021,05,29,11,45,844.00
2021,05,29,11,46,844.50
2021,05,29,11,47,846.00
2021,05,29,11,48,846.50
2021,05,29,11,49,848.30
2021,05,29,11,50,849.00
2021,05,29,11,51,849.00
2021,05,29,11,52,851.00
2021,05,29,11,53,851.60
2021,05,29,11,54,853.00
2021,05,29,11,55,853.50
2021,05,29,11,56,855.20
2021,05,29,11,57,856.00
2021,05,29,11,58,856.00
2021,05,29,11,59,856.30
2021,05,29,12,00,858.50
2021,05,29,12,01,860.00
2021,05,29,12,02,860.50
2021,05,29,12,03,861.00
2021,05,29,12,04,861.00
2021,05,29,12,05,862.70
2021,05,29,12,06,861.30
2021,05,29,12,07,866.40
2021,05,29,12,08,866.30
2021,05,29,12,09,866.20
2021,05,29,12,10,868.50
2021,05,29,12,11,868.30
2021,05,29,12,12,871.90
2021,05,29,12,13,873.60
2021,05,29,12,14,872.00
2021,05,29,12,15,870.30
2021,05,29,12,16,871.50
2021,05,29,12,17,874.70
2021,05,29,12,18,875.00
2021,05,29,12,19,876.70
2021,05,29,12,20,875.50
2021,05,29,12,21,875.90
2021,05,29,12,22,876.20
2021,05,29,12,23,877.90
2021,05,29,12,24,879.90
2021,05,29,12,25,881.00
2021,05,29,12,26,881.70
2021,05,29,12,27,879.70
2021,05,29,12,28,882.70
2021,05,29,12,29,884.00
2021,05,29,12,30,884.00
2021,05,29,12,31,882.60
2021,05,29,12,32,883.70
2021,05,29,12,33,884.20
2021,05,29,12,34,886.00
2021,05,29,12,35,886.00
2021,05,29,12,36,887.10
2021,05,29,12,37,888.00
2021,05,29,12,38,888.00
2021,05,29,12,39,886.20
2021,05,29,12,40,889.30
2021,05,29,12,41,891.00
2021,05,29,12,42,890.10
2021,05,29,12,43,889.00
2021,05,29,12,44,889.00
2021,05,29,12,45,889.00
2021,05,29,12,46,890.80
2021,05,29,12,47,893.00
2021,05,29,12,48,893.00
2021,05,29,12,49,893.00
2021,05,29,12,50,894.70
2021,05,29,12,51,894.00
2021,05,29,12,52,893.00
2021,05,29,12,53,893.00
2021,05,29,12,54,893.40
2021,05,29,12,55,895.00
2021,05,29,12,56,895.40
2021,05,29,12,57,896.00
2021,05,29,12,58,895.30
2021,05,29,12,59,895.80
2021,05,29,13,00,895.90
2021,05,29,13,01,895.20
2021,05,29,13,02,896.00
2021,05,29,13,03,896.00
2021,05,29,13,04,896.00
2021,05,29,13,05,896.00
2021,05,29,13,06,896.00
2021,05,29,13,07,896.20
2021,05,29,13,08,897.60
2021,05,29,13,09,896.00
2021,05,29,13,10,896.00
2021,05,29,13,11,897.10
2021,05,29,13,12,898.00
2021,05,29,13,13,898.00
2021,05,29,13,14,896.10
2021,05,29,13,15,896.00
2021,05,29,13,16,897.30
2021,05,29,13,17,898.10
2021,05,29,13,18,896.00
2021,05,29,13,19,897.40
2021,05,29,13,20,896.30
2021,05,29,13,21,896.20
2021,05,29,13,22,898.00
2021,05,29,13,23,898.00
2021,05,29,13,24,897.00
2021,05,29,13,25,897.10
2021,05,29,13,26,896.60
2021,05,29,13,27,896.00
2021,05,29,13,28,898.00
2021,05,29,13,29,898.50
2021,05,29,13,30,899.10
2021,05,29,13,31,897.00
2021,05,29,13,32,897.30
2021,05,29,13,33,898.00
2021,05,29,13,34,896.20
2021,05,29,13,35,899.70
2021,05,29,13,36,897.50
2021,05,29,13,37,895.60
2021,05,29,13,38,893.00
2021,05,29,13,39,894.30
2021,05,29,13,40,893.60
2021,05,29,13,41,894.80
2021,05,29,13,42,894.40
2021,05,29,13,43,891.60
2021,05,29,13,44,893.00
2021,05,29,13,45,893.00
2021,05,29,13,46,891.70
2021,05,29,13,47,892.50
2021,05,29,13,48,895.70
2021,05,29,13,49,895.80
2021,05,29,13,50,894.40
2021,05,29,13,51,893.00
2021,05,29,13,52,893.00
2021,05,29,13,53,891.70
2021,05,29,13,54,891.00
2021,05,29,13,55,890.90
2021,05,29,13,56,889.00
2021,05,29,13,57,889.70
2021,05,29,13,58,890.10
2021,05,29,13,59,889.00
2021,05,29,14,00,886.90
2021,05,29,14,01,886.00
2021,05,29,14,02,886.00
2021,05,29,14,03,886.00
2021,05,29,14,04,885.30
2021,05,29,14,05,884.00
2021,05,29,14,06,884.00
2021,05,29,14,07,882.60
2021,05,29,14,08,882.00
2021,05,29,14,09,882.00
2021,05,29,14,10,881.80
2021,05,29,14,11,882.10
2021,05,29,14,12,883.00
2021,05,29,14,13,881.40
2021,05,29,14,14,881.00
2021,05,29,14,15,881.00
2021,05,29,14,16,881.00
2021,05,29,14,17,880.50
2021,05,29,14,18,878.20
2021,05,29,14,19,877.00
2021,05,29,14,20,873.80
2021,05,29,14,21,870.50
2021,05,29,14,22,873.50
2021,05,29,14,23,868.00
2021,05,29,14,24,871.40
2021,05,29,14,25,866.20
2021,05,29,14,26,869.00
2021,05,29,14,27,870.00
2021,05,29,14,28,867.70
2021,05,29,14,29,867.90
2021,05,29,14,30,868.00
2021,05,29,14,31,868.00
2021,05,29,14,32,866.80
2021,05,29,14,33,863.00
2021,05,29,14,34,861.00
2021,05,29,14,35,862.50
2021,05,29,14,36,860.10
2021,05,29,14,37,860.20
2021,05,29,14,38,860.70
2021,05,29,14,39,860.00
2021,05,29,14,40,858.90
2021,05,29,14,41,858.00
2021,05,29,14,42,854.80
2021,05,29,14,43,854.10
2021,05,29,14,44,856.00
2021,05,29,14,45,854.50
2021,05,29,14,46,851.90
2021,05,29,14,47,850.60
2021,05,29,14,48,847.60
2021,05,29,14,49,844.60
2021,05,29,14,50,844.00
2021,05,29,14,51,844.00
2021,05,29,14,52,836.70
2021,05,29,14,53,832.00
2021,05,29,14,54,840.90
2021,05,29,14,55,846.00
2021,05,29,14,56,833.70
2021,05,29,14,57,829.30
2021,05,29,14,58,821.00
2021,05,29,14,59,817.30
2021,05,29,15,00,821.10
2021,05,29,15,01,825.80
2021,05,29,15,02,830.00
2021,05,29,15,03,830.00
2021,05,29,15,04,828.30
2021,05,29,15,05,829.60
2021,05,29,15,06,828.70
2021,05,29,15,07,827.10
2021,05,29,15,08,824.00
2021,05,29,15,09,825.50
2021,05,29,15,10,823.40
2021,05,29,15,11,821.00
2021,05,29,15,12,820.50
2021,05,29,15,13,818.30
2021,05,29,15,14,817.00
2021,05,29,15,15,817.00
2021,05,29,15,16,814.70
2021,05,29,15,17,815.70
2021,05,29,15,18,811.70
2021,05,29,15,19,810.50
2021,05,29,15,20,812.00
2021,05,29,15,21,811.00
2021,05,29,15,22,809.40
2021,05,29,15,23,807.40
2021,05,29,15,24,806.80
2021,05,29,15,25,802.20
2021,05,29,15,26,799.10
2021,05,29,15,27,801.10
2021,05,29,15,28,799.00
2021,05,29,15,29,798.00
2021,05,29,15,30,796.40
2021,05,29,15,31,796.00
2021,05,29,15,32,795.50
2021,05,29,15,33,793.00
2021,05,29,15,34,793.90
2021,05,29,15,35,788.80
2021,05,29,15,36,788.80
2021,05,29,15,37,789.50
2021,05,29,15,38,788.80
2021,05,29,15,39,782.50
2021,05,29,15,40,767.60
2021,05,29,15,41,779.00
2021,05,29,15,42,777.90
2021,05,29,15,43,775.60
2021,05,29,15,44,773.40
2021,05,29,15,45,771.80
2021,05,29,15,46,769.50
2021,05,29,15,47,766.90
2021,05,29,15,48,759.80
2021,05,29,15,49,742.20
2021,05,29,15,50,757.50
2021,05,29,15,51,763.30
2021,05,29,15,52,760.80
2021,05,29,15,53,758.40
2021,05,29,15,54,756.00
2021,05,29,15,55,754.00
2021,05,29,15,56,750.10
2021,05,29,15,57,741.10
2021,05,29,15,58,741.40
2021,05,29,15,59,746.30
2021,05,29,16,00,742.00
2021,05,29,16,01,742.70
2021,05,29,16,02,743.00
2021,05,29,16,03,739.50
2021,05,29,16,04,737.30
2021,05,29,16,05,737.00
2021,05,29,16,06,724.40
2021,05,29,16,07,728.90
2021,05,29,16,08,729.90
2021,05,29,16,09,725.90
2021,05,29,16,10,724.00
2021,05,29,16,11,722.40
2021,05,29,16,12,721.10
2021,05,29,16,13,720.70
2021,05,29,16,14,718.40
2021,05,29,16,15,716.20
2021,05,29,16,16,712.50
2021,05,29,16,17,702.40
2021,05,29,16,18,706.10
2021,05,29,16,19,707.10
2021,05,29,16,20,707.00
2021,05,29,16,21,705.80
2021,05,29,16,22,700.00
2021,05,29,16,23,683.30
2021,05,29,16,24,675.80
2021,05,29,16,25,671.40
2021,05,29,16,26,670.00
2021,05,29,16,27,668.30
2021,05,29,16,28,660.30
2021,05,29,16,29,669.60
2021,05,29,16,30,666.90
2021,05,29,16,31,666.00
2021,05,29,16,32,664.40
2021,05,29,16,33,665.90
2021,05,29,16,34,664.70
2021,05,29,16,35,659.00
2021,05,29,16,36,657.70
2021,05,29,16,37,660.40
2021,05,29,16,38,660.20
2021,05,29,16,39,657.40
2021,05,29,16,40,652.70
2021,05,29,16,41,656.30
2021,05,29,16,42,654.80
2021,05,29,16,43,652.70
2021,05,29,16,44,649.70
2021,05,29,16,45,644.30
2021,05,29,16,46,642.90
2021,05,29,16,47,638.30
2021,05,29,16,48,640.70
2021,05,29,16,49,641.40
2021,05,29,16,50,639.90
2021,05,29,16,51,642.00
2021,05,29,16,52,640.50
2021,05,29,16,53,636.40
2021,05,29,16,54,635.90
2021,05,29,16,55,633.90
2021,05,29,16,56,629.80
2021,05,29,16,57,625.10
2021,05,29,16,58,623.20
2021,05,29,16,59,621.70
2021,05,29,17,00,621.00
2021,05,29,17,01,616.70
2021,05,29,17,02,614.30
2021,05,29,17,03,611.20
2021,05,29,17,04,609.00
2021,05,29,17,05,606.70
2021,05,29,17,06,605.20
2021,05,29,17,07,601.10
2021,05,29,17,08,598.80